Tracking 27423 objects as of 9-Jun-2023
HD Live streaming from Space Station
objects crossing your sky now

SPACEBEE-111

Track SPACEBEE-111 now!
10-day predictions


NORAD ID: 48904
Int'l Code: 2021-059AB
Perigee: 468.1 km
Apogee: 477.0 km
Inclination: 97.6 °
Period: 93.9 minutes
Semi major axis: 6843 km
RCS: Unknown
Launch date: June 30, 2021
Source: United States (US)
Launch site: AIR FORCE EASTERN TEST RANGE (AFETR)
Your satellite tracking list
Your tracking list is empty




NASA's NSSDC Master Catalog

Two Line Element Set (TLE):
1 48904U 21059AB  23159.38201977  .00033589  00000-0  10362-2 0  9991
2 48904  97.5977 297.3859 0006490 291.7190  68.3361 15.33488187108118
Source of the keplerian elements: AFSPC